GEFSNGP_500_meanwind_180.txt.gz
Wind_Speed
12 11 11 10 10 9 9 9 10 8 7 6 6 5 5 5 6 7 7 8 9 10 10 9 9 10 10 10 11 11 12 12 12 12 12 11 12 12 12 13 13 13 14 14
13 13 12 12 11 10 10 9 9 9 7 7 7 6 6 6 6 7 7 8 9 10 10 10 10 10 10 10 11 11 11 12 13 13 13 12 12 13 14 14 14 15 14 14
15 14 14 13 11 11 10 9 9 9 8 7 7 7 7 6 6 7 7 8 9 10 10 10 10 10 11 11 11 11 11 12 13 14 14 14 14 14 15 15 15 15 16 16
17 16 16 13 12 12 12 11 10 9 9 9 8 9 8 7 7 7 8 8 9 10 11 11 11 10 11 11 12 12 12 13 13 14 15 15 15 15 15 16 16 17 17 18
19 18 17 15 14 13 13 12 12 11 10 9 9 9 8 8 8 9 9 9 10 10 11 11 11 11 11 12 13 13 14 14 14 15 15 16 16 16 16 17 17 18 18 18
20 19 19 16 15 14 14 14 12 12 12 10 9 8 8 9 10 10 10 10 10 10 10 11 11 11 12 12 13 14 14 15 15 15 15 15 16 17 18 18 18 18 19 19
22 21 19 17 16 16 16 13 13 12 12 11 10 9 10 10 10 10 10 10 10 10 10 11 11 11 12 12 13 14 14 15 15 16 16 17 17 18 19 19 19 20 21 21
24 23 20 17 17 16 15 13 13 13 12 12 11 12 11 11 11 12 12 12 12 12 12 12 12 13 13 13 14 14 15 15 16 17 18 18 19 19 19 19 20 21 21 21
25 23 21 19 18 17 16 15 15 14 13 13 12 13 13 13 13 13 13 13 13 14 14 14 14 14 15 15 15 15 15 16 17 18 19 20 20 20 20 20 21 21 22 22
27 25 23 21 20 18 17 16 15 15 15 14 14 14 14 14 14 14 14 15 15 15 15 15 15 15 16 16 17 17 17 17 18 19 20 20 20 21 21 21 22 22 23 23
28 26 24 23 21 20 19 18 17 17 17 16 16 16 16 15 15 15 15 16 16 16 16 17 17 17 17 18 18 19 19 19 19 20 21 21 21 21 22 22 23 23 24 25
28 26 26 24 22 21 21 20 19 18 18 18 17 18 18 17 17 17 17 17 17 17 18 18 18 18 18 18 19 19 20 20 20 21 21 22 22 23 23 24 24 24 25 25
29 29 28 26 25 24 22 21 20 19 19 19 20 20 20 19 19 19 19 19 19 19 19 19 19 19 19 19 19 20 20 21 22 22 22 23 23 24 25 25 25 26 27 27
31 30 29 27 26 25 24 23 23 22 21 20 21 21 21 21 21 20 20 20 20 20 20 20 20 21 21 21 21 21 22 22 23 24 24 25 25 25 26 26 27 27 28 29
32 31 29 28 27 26 26 25 25 24 23 22 22 22 22 22 22 21 21 21 21 21 21 21 22 22 22 22 22 23 23 24 24 25 25 26 26 27 27 27 28 28 29 30
33 33 31 30 28 28 27 27 26 25 24 24 23 23 23 23 23 23 23 23 23 22 23 23 23 23 24 24 24 25 25 26 26 27 27 27 27 27 28 28 29 30 31 31
34 33 32 32 31 30 30 29 28 27 26 26 25 25 25 25 24 24 24 25 25 24 24 25 25 25 26 26 26 27 27 27 28 28 28 28 28 29 29 29 30 30 31 32
34 34 34 33 33 32 31 31 30 30 29 28 27 27 27 27 26 26 26 26 26 26 26 26 26 27 27 27 28 29 29 29 29 28 29 29 29 30 30 30 31 31 32 33
33 33 33 33 33 33 33 32 32 32 31 30 30 28 28 27 28 28 28 28 28 28 28 28 28 28 28 29 29 29 29 30 30 30 30 31 31 31 31 32 32 33 33 34
33 32 32 32 32 32 32 32 32 32 31 31 31 29 29 28 28 29 29 29 29 29 30 29 30 30 30 30 31 31 31 31 31 31 32 32 32 33 34 34 34 35 35 36
33 33 32 31 31 32 32 33 32 32 32 32 31 30 30 30 30 30 30 30 30 31 31 31 31 31 31 31 31 32 32 32 32 33 33 34 34 35 35 36 36 36 37 37
34 34 33 32 32 33 33 33 33 32 31 31 31 31 30 30 31 31 31 31 31 32 32 32 32 32 33 33 33 33 33 33 34 34 35 35 36 36 37 37 37 38 39 39
35 35 34 34 33 33 33 32 32 32 32 32 32 32 31 31 31 31 31 31 32 32 33 33 34 34 34 34 34 34 34 34 35 36 36 37 37 37 38 39 39 40 40 41
35 35 35 35 35 35 34 33 33 33 32 33 33 33 33 33 32 32 32 32 32 33 33 34 34 35 35 35 34 34 34 35 36 36 37 38 38 39 39 40 40 41 41 42
34 34 35 35 35 35 34 34 35 35 35 35 35 35 35 34 34 33 33 33 33 34 34 34 35 35 35 34 34 35 35 35 36 37 38 38 38 39 39 40 41 41 42 42
34 34 35 35 35 35 35 35 35 36 36 36 36 36 36 35 35 34 34 33 33 34 34 34 35 35 34 34 35 36 36 36 37 37 38 38 39 40 40 41 41 42 43 43
35 35 35 35 36 36 36 35 35 35 35 36 36 36 36 36 36 36 35 34 34 34 34 34 34 35 35 35 36 36 37 37 38 38 38 39 39 40 41 42 42 43 43 43

GEFSNGP_500_meanwind_186.txt.gz
Wind_Speed
14 14 13 13 12 12 12 11 10 8 8 7 6 7 7 7 7 7 7 8 9 10 10 10 10 10 11 11 11 11 11 12 12 13 13 13 14 14 14 14 14 14 14 14
16 15 15 14 13 13 12 11 10 9 8 8 8 8 8 8 8 8 8 8 9 9 10 10 11 10 10 11 12 12 12 12 12 13 13 14 14 15 15 15 15 15 15 16
17 16 16 15 15 14 13 12 11 10 9 10 10 9 9 9 9 9 9 9 9 10 11 11 11 11 11 12 12 12 12 13 13 13 13 14 15 15 16 16 17 17 17 18
19 18 18 15 14 15 14 13 12 11 11 11 10 10 10 10 10 10 10 10 11 11 11 12 12 12 12 12 12 12 12 13 13 14 15 15 15 16 17 17 18 19 19 18
21 20 18 16 15 15 15 13 12 12 11 11 11 11 11 11 10 11 11 12 12 12 12 12 12 12 13 13 12 12 13 14 14 15 15 16 16 17 17 17 18 18 18 19
23 22 20 16 16 16 15 14 14 13 12 12 12 11 11 11 11 11 11 12 12 12 12 12 12 12 12 13 13 13 13 14 14 15 15 16 16 17 16 17 17 18 18 19
23 22 20 18 17 16 16 14 14 14 14 13 12 12 12 12 11 12 12 11 12 13 13 13 13 13 13 13 13 13 14 14 14 15 15 16 16 16 16 16 17 18 19 20
24 23 21 20 19 18 17 16 15 15 15 14 13 13 13 13 12 12 12 12 12 12 13 13 13 13 13 13 14 14 14 14 14 15 15 16 16 16 17 17 18 19 20 21
25 24 22 22 21 19 18 18 17 16 15 15 14 14 14 14 13 13 13 13 13 13 13 14 14 14 14 14 14 15 15 15 16 16 16 17 17 17 18 19 20 20 21 21
27 25 25 24 23 21 20 20 18 17 16 16 15 15 16 15 15 15 14 14 14 14 14 14 14 15 15 15 15 16 16 16 16 16 17 17 17 18 19 20 21 21 21 22
28 27 27 25 24 23 23 22 20 18 18 17 17 16 17 17 16 16 15 15 15 15 16 16 16 16 16 17 17 17 17 17 17 17 18 18 19 19 20 21 22 23 22 23
29 27 27 27 25 25 24 23 23 22 20 19 18 18 18 18 18 17 17 17 17 17 17 17 18 18 18 18 18 19 18 18 18 18 19 20 20 21 22 22 23 24 24 24
30 29 28 27 27 26 25 25 25 24 23 21 21 21 20 19 19 19 18 18 18 18 19 19 19 19 19 19 19 20 20 20 20 20 20 21 21 22 22 23 23 24 25 26
31 30 29 29 29 28 27 26 26 26 25 24 23 23 22 22 21 20 20 20 20 20 20 20 21 21 21 21 21 21 21 22 21 21 22 22 23 24 24 24 24 25 26 27
32 32 31 30 30 29 28 27 27 26 26 26 25 24 23 23 22 22 22 22 22 22 22 22 22 22 22 22 22 22 23 23 23 23 24 24 25 25 25 25 26 26 27 29
34 33 33 32 31 30 29 29 29 28 28 28 27 26 25 25 24 24 24 23 23 22 23 23 23 23 23 23 24 24 24 24 24 24 25 25 26 26 27 27 28 28 29 30
34 34 34 33 32 31 30 30 30 30 29 29 29 29 28 27 26 25 25 24 24 24 24 24 24 24 24 24 25 25 26 26 26 26 27 27 27 28 28 29 29 30 30 30
33 34 34 33 33 32 31 31 31 31 30 30 30 29 29 28 27 27 27 26 26 25 25 25 25 26 26 26 27 27 27 28 28 28 28 28 29 29 30 30 30 30 31 31
34 34 34 33 33 32 31 30 30 31 31 31 30 29 28 28 29 29 28 28 27 27 27 27 27 28 28 28 29 29 29 29 30 30 30 30 30 30 31 31 31 31 32 32
34 34 34 33 33 33 32 31 31 31 31 31 31 31 30 30 31 30 30 29 29 29 29 29 29 29 30 30 30 30 30 31 31 31 31 31 31 32 32 33 33 33 33 33
34 34 34 34 34 34 33 32 32 32 31 31 32 32 31 31 31 31 31 31 31 31 30 30 31 31 31 31 31 31 31 32 32 32 32 32 33 33 33 34 35 35 35 36
34 34 35 35 35 35 34 33 33 32 32 32 33 33 32 32 32 32 32 32 32 32 32 32 32 33 33 33 33 33 33 33 33 34 34 33 33 33 34 35 36 37 37 38
35 35 35 35 35 35 34 34 34 33 33 33 33 32 32 32 33 33 33 33 33 33 33 33 34 34 33 33 34 34 34 34 34 34 34 34 34 35 36 37 38 39 39 39
34 34 35 35 36 35 34 34 34 34 34 34 33 32 32 32 32 32 32 33 33 33 34 34 34 34 34 34 34 34 34 34 34 34 35 35 36 37 38 39 39 39 39 40
34 34 35 35 35 35 34 34 34 33 33 33 32 32 32 32 33 33 33 34 34 34 35 35 35 35 35 35 35 34 34 34 34 35 36 37 37 38 39 39 39 40 40 41
35 35 35 35 35 34 34 34 34 34 33 33 32 32 32 33 33 34 35 35 35 36 36 36 36 36 35 35 36 36 35 35 36 36 37 38 38 38 38 39 39 40 40 41
35 35 35 35 35 35 34 34 34 34 34 34 33 33 33 33 34 34 35 35 35 35 35 35 35 35 35 36 36 36 36 36 37 37 38 39 39 39 39 39 39 40 40 41

GEFSNGP_500_meanwind_192.txt.gz
Wind_Speed
15 15 14 13 13 11 11 10 9 8 8 8 7 7 7 7 7 7 7 8 8 9 9 9 9 10 11 11 11 12 11 11 11 12 12 12 12 12 12 13 13 13 13 13
17 16 16 15 13 13 12 11 9 9 8 8 8 8 8 8 8 8 8 9 10 10 9 9 10 10 11 11 11 11 11 11 12 12 12 12 13 13 13 13 14 14 14 14
19 18 18 17 15 14 13 12 11 10 9 10 10 9 9 9 9 9 9 9 9 10 10 10 10 10 10 11 11 11 11 11 12 12 12 13 14 14 14 14 14 15 15 15
21 20 20 17 17 16 15 13 13 12 11 12 11 11 10 10 10 10 10 10 11 10 10 10 11 11 11 12 12 11 11 12 12 13 14 14 14 14 14 15 15 15 15 15
22 22 21 18 17 17 16 15 14 13 13 13 13 12 12 11 11 11 11 11 11 11 11 11 11 11 11 12 12 12 12 12 13 13 14 13 14 14 14 14 14 15 15 15
23 23 22 19 18 17 17 16 15 14 14 14 14 14 13 12 12 13 12 12 11 11 12 12 12 12 12 12 12 13 13 12 12 12 13 13 14 15 15 15 15 15 15 16
24 24 23 21 20 19 19 17 16 15 14 14 14 14 13 14 14 14 13 13 12 12 12 12 13 13 13 13 13 13 13 13 13 13 13 14 14 15 15 15 15 16 17 17
26 25 23 22 22 21 20 19 17 16 15 15 14 14 14 14 14 14 14 14 13 13 13 13 13 13 13 14 14 14 14 13 13 13 14 14 15 15 15 15 15 16 16 17
27 26 24 23 23 22 21 20 19 18 17 17 16 15 15 15 15 16 15 15 14 14 14 14 13 14 14 14 14 14 14 14 14 14 14 14 14 15 15 15 16 16 17 18
27 26 24 24 25 24 23 22 21 20 20 19 18 17 17 16 17 17 16 15 15 15 15 15 15 14 14 14 14 14 14 14 14 14 14 14 14 15 16 16 17 17 18 18
27 26 26 25 25 25 25 24 23 22 22 21 21 20 19 18 18 18 17 17 16 16 16 16 16 16 16 16 16 15 15 15 15 15 15 16 16 17 17 17 18 18 19 20
27 27 28 27 26 26 25 25 25 24 24 22 21 21 21 20 20 19 19 18 17 17 17 17 17 17 17 17 17 17 16 16 16 16 17 17 17 18 18 18 19 19 20 21
29 29 29 29 28 26 26 25 25 25 25 23 22 21 21 21 21 21 20 20 19 19 19 19 18 19 19 19 19 19 19 18 18 18 19 19 19 19 19 20 21 21 22 22
30 30 30 29 29 28 27 26 26 26 26 25 24 23 22 22 21 21 21 21 20 20 21 21 21 20 20 20 20 20 20 20 20 20 20 20 20 21 21 21 22 23 23 24
31 31 30 29 30 30 30 29 28 27 27 26 26 25 24 23 22 22 22 22 22 22 22 22 22 22 21 21 21 21 21 21 21 21 21 21 22 22 23 23 24 24 25 26
32 32 31 30 30 30 30 29 29 28 28 28 27 27 25 24 24 23 23 23 23 23 23 23 23 23 22 22 22 22 22 22 22 23 23 24 24 25 25 25 26 26 27 27
33 32 31 31 31 31 30 30 29 29 28 29 28 27 27 26 25 25 25 24 24 24 24 24 23 23 23 23 23 23 24 24 25 25 26 26 26 27 27 27 28 28 29 29
32 32 32 32 32 32 32 32 31 30 29 29 29 28 28 27 27 27 26 26 26 26 25 25 25 25 25 25 25 25 26 26 27 28 27 27 27 28 28 28 29 29 30 30
32 32 32 32 32 32 32 32 31 30 29 29 29 29 29 29 28 28 27 27 27 27 27 27 27 27 27 27 27 27 27 28 28 29 29 29 29 30 30 30 31 31 31 31
32 32 32 32 32 33 32 32 31 31 30 30 29 29 29 29 29 29 28 28 28 28 28 27 28 28 28 28 28 28 29 29 29 30 30 30 31 31 31 32 32 32 32 33
32 32 32 32 32 33 33 32 31 31 30 30 30 30 30 30 30 30 29 29 28 28 28 28 28 28 28 29 30 30 30 31 31 31 31 31 32 32 32 32 33 33 34 35
32 32 32 32 33 33 33 32 32 31 31 31 31 32 31 31 31 31 30 30 29 29 29 29 29 29 29 30 31 31 31 32 32 32 32 32 32 33 33 34 34 35 35 36
33 33 33 32 32 33 33 33 33 32 32 32 32 31 31 32 31 31 31 30 30 30 30 30 30 29 30 31 31 32 32 33 33 33 33 33 34 34 34 35 35 35 36 36
33 33 34 33 33 33 33 34 34 33 33 33 32 32 32 32 31 31 30 30 29 29 30 29 29 29 30 31 31 32 33 33 33 34 34 34 34 34 35 36 36 36 37 37
33 34 34 34 33 33 33 34 34 34 34 34 33 33 33 32 32 31 31 30 30 31 31 31 30 31 31 32 32 33 34 34 34 34 35 35 36 36 36 36 37 37 37 38
33 33 34 34 34 34 34 34 34 34 34 34 34 34 34 33 32 32 32 31 31 31 32 32 32 33 33 33 34 34 35 35 35 35 35 35 36 36 36 36 36 37 38 38
33 34 34 34 34 34 35 34 34 33 33 34 34 34 34 34 33 32 31 31 32 32 33 33 34 34 34 34 34 34 35 35 35 35 35 36 37 37 37 37 37 37 38 38

GEFSNGP_500_meanwind_198.txt.gz
Wind_Speed
19 18 18 17 16 15 14 14 14 12 12 12 12 12 11 11 10 10 9 9 9 9 9 10 9 9 9 10 9 9 9 9 9 9 9 9 10 10 10 10 11 12 12 13
20 19 19 19 18 17 15 15 14 13 12 12 12 12 11 11 11 10 10 10 9 9 10 10 10 10 10 10 10 10 10 10 10 10 10 10 10 11 11 12 12 13 13 12
22 21 21 21 18 17 17 16 15 14 13 13 13 13 11 11 11 11 10 10 10 10 10 10 10 10 10 10 10 10 10 11 11 11 11 10 11 12 12 12 13 13 13 12
23 22 23 21 19 19 18 17 16 15 14 14 14 13 12 12 12 11 11 11 11 10 11 11 10 10 10 10 10 10 10 11 11 11 11 11 12 13 12 13 13 14 13 13
24 24 24 22 19 19 19 17 16 16 15 14 14 14 14 12 12 12 12 12 12 12 12 12 11 11 10 10 10 10 11 11 11 12 12 13 13 13 13 13 14 14 14 14
26 26 26 23 20 20 20 19 18 17 16 15 15 15 14 13 12 12 13 13 13 13 13 12 13 12 11 11 11 11 11 11 11 12 12 13 14 14 14 14 14 14 14 14
28 27 27 23 21 21 21 19 19 19 18 16 16 16 15 14 14 13 13 13 13 13 13 13 13 13 13 12 12 12 12 12 12 12 12 13 14 14 15 15 15 15 14 15
28 28 27 24 24 23 22 21 21 20 19 18 17 17 16 15 15 15 15 14 14 14 13 13 13 13 13 13 13 14 14 13 13 14 14 14 14 14 14 15 15 15 15 15
30 28 25 25 26 25 25 24 22 21 21 20 19 19 18 17 17 17 16 16 15 14 14 14 14 14 14 14 15 15 15 15 15 16 15 15 15 15 15 15 15 15 16 16
29 28 27 27 27 26 26 25 24 22 23 22 21 21 20 19 19 18 17 17 17 16 16 15 15 15 15 16 16 16 16 16 17 16 16 16 16 16 16 16 16 16 16 17
31 30 29 29 28 27 27 26 25 25 24 23 22 21 21 21 20 19 18 18 17 17 17 17 17 17 17 17 17 17 17 17 17 17 17 17 17 17 17 17 17 17 18 18
31 31 30 30 30 29 29 28 26 25 24 24 23 22 22 22 21 20 20 19 19 18 18 18 18 18 18 18 19 18 18 18 18 18 18 18 18 18 18 18 18 18 19 20
33 33 33 32 31 31 30 29 28 26 25 24 24 23 23 23 22 22 21 21 21 20 20 19 19 19 19 19 19 19 19 19 19 20 20 20 20 20 19 19 20 20 20 21
33 33 33 32 32 32 30 30 29 29 27 26 25 25 24 24 24 23 22 22 22 22 21 20 20 20 20 20 20 20 20 20 20 21 21 22 21 21 21 22 21 22 22 22
32 32 32 32 32 32 32 30 30 29 28 27 26 26 25 25 24 24 23 23 22 22 22 21 21 21 21 21 21 22 22 22 22 22 23 23 23 23 23 23 23 23 24 24
32 33 33 33 32 32 32 32 31 30 29 28 27 27 26 26 25 24 24 24 23 23 22 22 22 22 22 22 22 23 23 24 24 24 24 24 24 24 24 25 25 26 26 27
33 33 33 33 32 32 32 32 31 30 30 29 29 28 27 27 26 26 25 25 24 24 24 23 23 24 24 24 24 24 25 25 25 25 25 26 26 26 27 27 28 28 28 28
32 33 33 33 33 32 32 32 31 31 31 30 29 28 28 28 27 27 26 26 26 25 25 25 25 25 25 25 26 26 27 27 27 27 27 28 28 29 29 29 30 30 30 31
33 33 34 34 33 33 32 31 32 32 31 31 31 30 29 29 29 28 28 27 27 27 26 26 26 26 26 27 27 28 28 29 29 29 30 30 30 31 31 31 31 32 32 32
34 34 34 34 33 33 32 32 32 32 32 32 32 32 31 31 30 30 29 29 28 28 28 27 28 27 28 28 29 29 30 30 31 31 32 32 32 32 33 33 33 33 33 34
34 34 34 34 34 34 34 33 33 32 32 33 33 33 32 32 31 31 30 29 29 30 29 29 29 29 29 30 30 30 31 31 32 32 32 33 33 33 34 34 34 35 35 36
33 34 34 34 35 35 34 34 33 33 33 34 34 33 33 33 32 32 31 31 31 32 31 31 31 31 31 31 31 31 32 32 32 32 33 33 34 34 35 35 35 36 37 37
33 34 35 35 35 34 35 34 34 33 34 34 34 33 33 33 33 33 32 32 32 32 32 32 32 32 32 32 31 31 32 32 33 33 34 34 35 35 36 36 36 37 37 38
33 34 35 35 35 35 34 34 33 34 33 33 33 33 33 34 34 34 34 33 33 32 32 31 32 32 32 32 33 33 33 33 34 34 35 35 36 36 36 36 36 37 37 38
34 35 36 35 35 34 34 34 34 34 34 33 33 33 33 33 34 34 33 33 32 32 32 31 31 32 32 32 32 33 33 33 33 33 34 34 35 36 35 35 35 36 36 37
34 35 35 35 35 34 34 35 35 35 34 33 33 33 33 33 33 33 33 32 32 32 31 31 31 32 32 32 33 33 33 33 33 33 33 34 34 34 35 35 35 36 36 36
35 35 35 35 35 35 34 34 34 34 33 33 32 32 32 32 32 32 32 31 31 31 31 31 31 31 31 32 32 32 33 33 33 33 33 33 33 34 34 34 35 35 36 36

GEFSNGP_500_meanwind_204.txt.gz
Wind_Speed
19 18 17 16 16 15 15 14 14 12 11 11 11 10 9 8 7 7 7 7 6 6 6 6 7 7 7 8 8 8 8 9 9 9 10 10 10 10 10 10 10 10 10 11
21 20 19 19 17 17 16 15 14 13 12 11 11 10 9 8 8 8 7 7 7 7 7 7 8 8 8 8 8 8 9 9 9 9 10 10 10 11 11 11 11 11 12 12
24 23 22 21 18 18 17 16 15 13 12 12 12 11 11 10 9 9 8 7 7 7 7 8 9 9 9 9 9 9 10 10 10 10 10 10 11 11 11 11 11 12 13 12
26 25 25 21 19 19 18 17 16 15 14 13 13 12 12 11 10 9 8 8 8 8 8 8 9 9 9 9 9 10 10 11 11 11 11 11 12 12 12 12 12 13 13 13
28 27 25 22 20 20 20 19 17 17 15 14 13 13 12 11 11 10 10 10 10 9 9 8 9 9 9 9 9 9 10 11 12 12 13 13 13 13 13 13 13 13 13 13
29 28 26 22 20 20 21 21 19 18 17 16 15 14 13 13 12 11 11 11 11 10 10 10 10 10 10 10 10 10 11 11 12 12 12 13 13 14 14 14 14 14 14 14
31 28 26 23 22 22 23 20 20 19 18 17 16 16 15 14 13 12 13 13 12 12 11 11 11 11 11 11 11 11 12 12 13 13 13 13 14 14 14 15 15 15 15 15
30 30 26 23 24 23 21 21 21 20 19 18 18 17 17 16 14 14 14 14 14 13 13 13 13 12 12 13 13 13 13 13 14 14 14 14 14 14 14 14 14 15 15 15
30 28 26 24 24 23 22 22 21 21 21 20 20 19 18 17 17 16 15 15 15 15 14 14 14 14 13 14 15 15 15 15 15 15 16 16 16 16 16 15 15 16 16 16
29 27 26 26 26 24 23 23 22 22 22 22 21 21 20 19 18 18 18 17 17 16 16 15 15 15 15 16 16 16 16 16 16 17 17 18 18 18 18 17 17 18 18 18
29 27 27 27 27 25 24 24 23 23 23 23 22 22 22 21 20 20 20 19 18 17 17 17 17 17 17 17 17 17 17 18 18 18 18 18 19 19 19 19 20 19 19 20
29 27 26 27 28 27 26 25 24 24 24 24 24 24 23 22 22 22 21 21 20 19 19 19 19 18 19 19 18 18 18 19 19 19 19 19 20 20 21 21 21 21 21 21
29 29 28 28 28 27 27 26 26 26 26 25 26 25 25 24 24 24 23 22 22 21 21 20 20 20 20 20 20 20 20 20 20 20 20 20 21 21 22 22 22 22 23 23
30 30 30 29 29 29 29 28 28 27 27 27 27 27 26 26 25 25 24 23 22 22 21 21 21 22 22 22 22 22 22 22 22 21 21 21 22 22 22 23 23 23 23 23
31 31 31 30 31 31 30 29 29 28 28 29 29 28 27 27 26 25 25 24 24 23 22 23 22 22 22 22 23 23 23 23 23 23 23 23 23 24 24 25 25 25 24 25
32 32 32 31 31 31 30 30 29 28 28 29 29 29 27 27 27 27 26 26 25 24 24 24 23 23 23 23 23 23 23 24 24 24 24 24 24 25 26 26 26 27 26 27
33 32 32 32 31 31 31 31 30 29 29 30 30 29 29 28 28 27 27 27 27 27 26 25 25 25 24 24 24 24 25 25 25 26 26 26 26 26 27 27 28 28 29 29
32 32 31 31 30 30 31 31 31 31 30 30 30 31 30 29 29 29 29 28 28 28 27 27 26 25 25 25 25 26 26 26 26 27 27 27 27 28 29 29 29 30 30 30
31 31 30 30 30 30 31 31 31 31 31 31 31 31 31 31 31 30 30 29 29 28 28 28 27 27 26 26 26 27 27 27 27 27 28 28 29 29 30 30 30 31 31 31
28 29 30 31 31 31 31 30 31 32 32 32 31 31 31 31 31 31 32 31 30 29 29 29 29 29 28 28 28 28 28 28 28 28 28 29 30 30 30 31 31 32 32 32
27 28 30 30 30 31 31 32 32 32 32 32 32 32 32 32 32 32 32 32 31 30 30 30 30 30 30 29 29 29 29 29 29 29 29 29 30 30 31 31 31 32 32 33
28 29 30 30 30 31 31 32 32 33 33 33 32 33 34 33 33 33 32 32 32 32 31 31 31 31 31 31 30 30 30 29 29 29 29 30 30 31 31 31 32 32 33 33
28 29 29 30 30 31 31 32 33 33 34 34 33 33 33 33 33 33 33 33 32 32 32 32 32 32 31 31 31 30 30 30 29 30 30 30 30 30 31 31 32 33 33 34
28 29 30 31 32 33 33 33 33 33 33 34 34 34 34 33 33 32 33 33 33 32 32 32 32 32 32 31 31 30 30 30 30 30 30 29 30 30 31 31 32 33 33 33
28 29 29 31 32 33 33 33 33 34 34 33 33 33 34 33 33 32 31 32 32 33 32 32 32 32 31 31 31 31 30 30 30 30 30 30 30 30 30 31 32 33 33 33
29 29 30 30 31 32 33 33 33 33 32 32 32 32 32 33 32 32 31 31 31 32 32 32 32 32 32 31 31 30 30 30 30 30 30 30 30 30 31 32 32 33 33 33
29 30 30 31 31 31 32 32 32 33 32 32 32 32 32 32 32 31 31 31 30 31 31 31 31 31 31 31 31 30 31 31 30 30 30 30 31 31 32 32 32 32 32 33

GEFSNGP_500_meanwind_210.txt.gz
Wind_Speed
21 20 19 18 17 17 17 17 16 13 11 10 10 10 10 9 9 9 9 9 9 9 8 8 7 8 7 8 7 7 8 7 8 8 8 9 9 9 9 9 9 9 9 10
23 22 21 21 19 18 18 18 17 15 12 11 12 12 11 10 10 10 10 10 10 10 9 9 8 8 8 8 8 8 8 8 9 9 9 9 9 10 10 10 10 10 10 10
24 23 23 22 20 19 19 18 18 16 14 14 13 13 12 12 11 11 10 11 11 11 10 10 9 9 8 8 8 9 9 9 9 10 10 10 10 10 11 11 11 11 12 12
26 25 25 21 20 20 20 19 19 17 16 15 15 14 14 13 12 12 11 11 11 11 10 10 9 9 9 9 9 9 9 10 10 10 11 11 11 12 12 12 12 13 13 13
28 26 25 23 21 21 21 21 20 19 18 17 17 15 14 14 14 14 13 12 11 11 11 10 10 10 10 10 10 11 10 11 11 12 12 12 12 13 13 14 14 14 14 14
29 28 25 23 23 22 22 20 20 20 20 19 18 17 15 15 16 15 14 13 12 12 12 11 11 11 11 11 11 12 12 12 12 13 13 14 13 14 14 14 15 15 16 16
30 29 26 25 24 24 24 21 21 21 21 20 19 18 17 17 17 17 16 15 14 13 13 12 12 12 12 12 13 13 13 13 13 13 13 14 15 15 15 15 15 15 16 17
30 30 27 26 26 25 24 24 23 23 22 22 21 20 19 19 18 18 18 17 16 15 14 14 13 13 13 12 13 13 14 14 15 15 15 15 16 17 17 17 16 16 17 17
31 30 29 28 26 25 26 25 25 24 24 23 22 21 21 20 20 20 19 19 18 17 16 16 15 15 14 14 15 15 15 16 16 17 17 17 17 18 18 18 17 18 18 18
32 31 30 30 28 27 26 26 26 26 25 24 24 23 22 22 21 21 20 20 20 19 18 18 18 17 17 17 16 17 17 18 18 18 19 18 18 19 19 19 19 19 20 20
31 31 30 29 30 29 29 28 27 27 27 26 26 24 23 23 23 22 21 21 21 21 21 20 20 19 18 18 18 19 19 20 19 19 19 19 20 20 21 21 21 21 21 21
29 29 31 30 30 29 29 28 28 27 27 27 28 26 25 25 24 24 23 23 23 22 22 22 21 20 20 20 21 21 21 21 21 21 21 21 21 21 22 22 23 23 23 23
31 31 31 31 32 31 29 28 29 28 28 29 29 28 27 27 26 26 25 25 24 24 23 23 23 23 23 22 22 22 22 22 22 23 23 23 23 23 23 24 24 24 24 24
32 33 32 32 32 31 31 30 29 29 29 29 29 29 28 28 27 27 26 26 26 25 25 25 25 24 24 23 23 23 23 24 24 25 25 25 24 24 24 24 24 25 25 26
32 33 33 33 33 33 32 31 30 29 29 29 30 30 29 28 28 27 27 27 27 27 26 26 26 25 25 25 24 24 24 24 24 25 25 25 25 25 25 25 26 26 27 28
32 32 32 33 33 33 33 32 31 30 30 30 30 29 29 30 28 28 27 27 28 28 28 27 27 27 26 25 25 25 25 25 25 25 25 25 26 26 26 27 27 28 28 29
32 30 31 31 32 32 32 31 32 32 31 30 30 30 30 30 30 28 28 28 29 30 29 29 28 27 27 27 27 27 27 26 26 25 25 26 27 28 28 28 28 29 29 30
31 31 31 32 32 32 32 32 31 32 31 31 31 30 30 30 30 30 29 29 30 31 30 29 29 29 28 28 28 28 28 28 27 27 27 27 28 29 29 29 29 29 30 30
30 30 31 32 31 30 30 31 31 32 32 32 32 32 31 30 30 30 30 31 31 31 31 31 31 31 30 30 29 29 29 29 28 28 28 29 29 29 29 29 30 30 30 31
29 30 30 31 31 30 30 31 31 32 32 32 32 33 32 32 31 32 32 32 32 32 32 32 31 31 31 31 30 30 30 30 29 29 29 29 29 29 29 30 30 30 31 31
30 30 31 31 31 30 30 31 32 32 32 33 33 33 34 34 33 33 33 32 32 32 32 31 32 32 32 31 31 31 31 30 30 30 30 30 30 30 30 31 31 31 31 32
29 30 31 31 31 30 30 31 32 33 33 33 33 34 35 34 34 34 33 33 32 32 32 31 32 32 32 32 32 32 32 32 32 32 31 31 31 31 31 31 32 32 33 33
29 30 31 31 30 31 32 32 33 33 33 33 33 34 35 35 35 34 33 33 32 33 33 32 32 33 33 33 33 33 32 33 33 32 32 31 31 32 32 32 32 33 33 34
28 28 29 30 31 31 32 32 32 33 34 34 35 35 35 35 35 34 34 34 34 34 33 33 33 33 33 33 33 33 33 33 33 32 32 31 32 32 32 32 33 33 33 34
29 30 30 30 31 31 32 33 33 34 34 35 35 35 35 35 35 34 35 35 34 34 34 33 33 33 33 33 33 33 33 33 33 33 32 32 33 33 33 33 34 33 33 33
28 29 29 29 30 31 32 33 33 34 34 34 34 34 34 35 35 35 35 34 34 34 34 34 33 33 33 33 33 33 32 32 32 33 33 33 33 33 32 32 32 32 32 32
28 28 28 29 29 29 29 30 31 33 33 33 34 34 34 34 34 34 34 34 34 34 34 33 33 33 33 33 33 33 33 33 33 33 33 33 33 32 32 32 32 32 32 32

GEFSNGP_500_meanwind_216.txt.gz
Wind_Speed
20 20 19 19 18 17 16 16 15 14 12 12 12 12 11 11 11 10 10 9 9 9 9 8 8 8 7 7 7 6 6 6 7 7 7 8 8 7 7 8 8 7 7 7
22 21 21 21 19 18 17 17 16 15 14 14 14 13 12 12 12 12 11 11 11 10 10 10 9 9 9 8 8 8 7 8 7 7 8 8 9 9 9 8 8 8 8 9
24 23 23 23 20 20 18 18 18 17 16 15 15 14 14 13 13 13 13 13 12 12 11 11 10 10 10 10 9 9 9 8 8 8 8 9 9 9 9 9 9 10 10 10
26 26 26 24 22 21 20 20 20 19 17 16 15 15 15 15 15 14 14 14 14 13 12 12 11 11 11 11 11 10 10 10 9 9 10 9 9 9 9 9 10 11 11 11
27 27 27 25 24 23 22 21 20 20 19 17 16 15 15 16 16 15 15 14 14 14 13 13 12 12 12 12 12 11 11 11 11 11 10 10 10 10 10 10 11 11 11 12
27 28 28 26 25 24 24 23 21 21 20 18 17 17 16 17 17 17 16 16 15 14 14 14 13 13 13 13 13 13 13 12 12 12 12 12 11 12 12 12 12 12 12 13
27 28 28 25 24 24 24 23 22 22 21 20 19 19 18 18 18 18 18 18 17 16 16 15 15 15 15 14 14 14 14 14 14 13 13 14 14 14 13 14 14 14 14 14
28 29 27 25 25 25 25 25 24 24 23 22 22 21 20 20 20 19 19 19 19 18 17 17 17 16 16 16 15 16 16 15 15 15 15 15 16 16 16 16 16 16 16 16
29 29 27 27 26 26 26 26 25 25 25 24 24 23 22 21 21 21 21 21 20 20 19 19 19 18 17 17 16 16 17 17 17 17 17 18 18 18 18 18 18 18 18 18
30 30 29 28 28 28 28 27 26 26 26 25 25 25 25 24 23 23 23 23 22 21 21 20 20 19 19 18 19 19 19 19 19 19 19 19 19 19 20 20 20 20 20 20
31 30 30 29 29 29 29 29 28 27 27 27 27 26 25 25 25 25 25 24 24 23 22 21 21 21 20 20 21 21 21 21 21 21 21 21 21 21 21 22 22 22 22 22
31 30 31 31 31 30 30 30 29 29 29 28 28 28 27 27 27 26 26 26 25 24 24 23 23 22 22 22 22 22 22 22 22 22 23 23 23 22 23 24 23 23 23 23
31 30 31 31 31 31 31 30 31 30 30 30 29 29 28 28 27 28 28 28 27 26 26 25 25 24 23 23 24 24 24 24 24 24 24 24 24 24 24 25 25 25 25 25
31 31 31 31 31 31 31 30 30 31 31 31 29 29 29 28 28 28 28 28 28 28 28 27 26 26 25 25 25 25 25 25 25 25 25 25 25 25 26 26 26 26 26 26
31 31 31 30 30 31 31 30 30 31 32 31 30 30 30 29 29 29 29 29 29 28 28 28 28 27 27 26 26 26 26 26 26 26 26 26 26 27 27 27 27 27 27 27
31 31 30 30 30 30 31 31 31 31 31 31 32 31 31 30 29 30 29 29 29 29 28 29 28 28 27 27 27 27 28 28 27 27 27 27 28 28 28 28 29 29 29 29
30 30 30 30 30 30 31 32 31 30 30 31 31 31 32 31 30 30 29 29 29 29 29 29 29 29 28 28 28 28 28 28 28 28 29 29 29 29 29 29 29 29 29 29
29 29 29 29 29 31 31 31 31 31 31 32 32 32 32 32 32 31 31 30 30 31 30 30 31 31 30 30 30 29 29 29 29 30 30 29 29 29 29 29 29 29 29 30
29 28 29 29 29 30 29 29 30 31 32 33 33 34 33 33 32 32 32 32 32 31 31 32 31 31 31 31 30 30 30 30 30 30 30 30 30 29 29 29 29 29 29 30
27 27 27 28 29 29 29 29 30 31 32 33 33 33 34 34 33 33 33 33 32 32 31 32 32 32 32 31 31 31 30 30 30 30 30 30 30 30 30 30 30 30 31 32
27 27 27 27 28 28 29 29 30 31 32 32 33 33 33 34 34 34 34 33 33 32 32 33 33 33 33 32 32 32 31 31 31 31 31 31 31 31 31 31 31 32 32 32
27 27 27 27 28 29 30 30 30 30 31 32 32 31 32 32 33 34 34 33 33 33 32 33 33 33 33 33 33 33 33 32 32 32 32 32 31 31 32 32 32 32 32 32
28 28 27 27 27 28 29 29 29 30 31 31 31 32 32 32 32 33 32 32 32 32 32 32 33 34 34 34 33 33 33 33 33 33 32 32 32 32 32 32 32 32 32 32
27 27 27 27 27 27 28 28 28 28 29 30 31 31 31 31 31 31 31 32 33 33 32 32 32 33 33 34 34 34 34 33 33 33 33 33 33 33 33 33 32 32 32 32
27 27 27 27 28 27 28 28 29 29 29 29 30 30 32 32 31 31 31 31 33 33 33 32 32 32 33 33 34 34 34 34 34 34 33 33 33 33 33 33 33 32 32 32
26 26 26 26 26 27 27 28 28 28 29 29 30 30 32 32 32 32 32 32 33 33 33 32 32 32 33 33 34 33 33 33 33 33 33 33 33 33 33 33 33 33 33 32
26 26 26 25 26 26 27 27 27 28 29 29 30 30 31 31 31 32 33 34 34 34 33 32 32 32 32 33 33 33 33 33 33 34 34 34 33 33 33 33 33 32 32 32

GEFSNGP_500_meanwind_222.txt.gz
Wind_Speed
21 20 20 19 19 19 18 17 17 16 17 17 18 18 17 16 15 15 14 13 12 11 11 11 10 10 10 10 9 9 9 9 9 9 8 8 9 8 8 8 8 7 8 8
23 22 22 22 21 21 20 20 19 19 19 19 18 18 18 17 17 15 15 15 14 13 13 13 12 12 11 11 11 10 10 10 10 10 10 9 9 9 9 9 8 8 8 8
24 23 24 24 22 22 21 21 21 21 20 19 19 18 18 18 18 17 16 16 15 15 14 14 14 13 12 12 12 12 11 11 11 11 11 10 10 10 9 9 9 9 9 10
25 25 25 23 23 23 23 22 22 21 21 20 20 19 19 19 19 18 18 17 17 16 15 15 15 14 14 13 13 13 13 12 12 12 11 11 11 11 11 11 10 11 11 11
26 26 26 24 23 24 24 24 23 23 22 21 21 21 21 20 20 19 19 18 17 16 16 16 16 15 15 14 14 14 14 13 13 13 13 13 12 12 12 12 12 12 12 12
27 27 27 26 25 25 25 25 25 24 23 23 23 23 21 21 20 20 19 19 18 17 17 17 17 17 17 16 15 15 15 15 15 15 14 14 14 14 14 14 13 14 14 15
28 28 28 26 26 25 25 26 25 25 25 24 24 23 22 21 21 21 20 20 20 19 19 19 19 19 18 17 17 17 17 17 16 16 15 15 15 15 15 15 15 15 16 16
28 29 30 28 27 27 27 27 27 26 26 26 25 24 23 22 22 22 22 22 21 21 21 21 20 20 19 19 18 18 18 17 17 17 16 16 16 16 16 16 16 16 16 16
30 31 30 29 29 28 28 29 28 28 28 27 26 25 25 25 24 24 24 23 23 23 22 22 22 22 21 21 20 20 19 19 19 18 18 18 18 18 18 17 18 18 18 18
32 32 30 30 31 30 30 30 30 30 29 28 27 27 26 26 26 26 26 25 25 25 24 23 23 23 23 23 22 22 21 21 21 20 20 20 20 20 20 20 20 20 20 20
34 32 32 32 32 32 32 32 31 31 30 30 30 29 28 27 27 27 27 27 27 26 26 25 25 24 24 24 23 23 23 23 22 22 22 21 22 21 21 22 22 22 22 22
34 33 33 33 32 32 32 32 31 31 31 31 31 30 30 29 29 28 28 28 28 28 27 27 26 26 25 25 25 25 24 24 24 24 24 24 24 24 24 23 23 23 23 24
34 33 33 33 33 33 33 32 32 32 31 31 31 32 32 31 30 30 30 30 30 29 28 28 27 27 26 26 26 26 26 26 26 26 26 26 25 25 25 25 25 25 25 26
33 33 33 33 33 33 32 32 32 32 31 31 31 31 31 31 31 30 30 30 31 31 30 29 29 28 28 27 27 28 27 27 27 27 27 27 26 27 27 27 27 27 28 28
33 34 34 33 33 33 32 32 32 31 31 31 31 31 31 31 31 31 31 31 31 31 30 30 30 29 28 29 28 28 28 28 28 28 28 28 28 28 28 28 28 29 29 29
34 34 34 34 33 33 32 32 32 31 32 32 32 33 33 33 32 32 31 32 32 32 31 31 30 29 29 29 29 29 28 29 29 29 29 28 28 29 29 29 29 29 29 30
33 33 33 33 33 32 32 32 31 31 32 32 32 33 33 34 34 33 32 33 32 32 31 31 31 30 30 30 30 30 30 30 30 30 30 30 30 29 29 30 29 29 29 30
32 32 32 32 32 32 31 31 31 32 32 33 33 33 34 33 33 33 33 33 33 33 32 32 32 32 32 32 32 32 32 31 31 31 31 31 31 31 30 29 29 29 30 30
30 30 30 30 30 30 30 30 30 31 31 32 33 33 34 34 33 33 33 34 34 34 34 34 34 34 34 33 33 33 33 33 33 32 32 32 31 31 31 30 31 31 31 31
29 29 29 29 29 29 28 29 29 29 30 31 31 32 33 33 33 34 34 34 34 35 35 35 35 34 34 34 34 34 34 34 33 33 33 33 32 32 32 32 32 32 32 32
28 29 29 29 29 29 29 29 29 29 30 30 30 31 32 33 33 33 33 33 33 34 34 34 34 34 34 34 34 34 34 34 34 34 34 34 33 33 33 33 33 33 33 33
29 30 30 30 29 29 29 29 29 30 30 30 30 30 31 32 32 32 32 32 32 32 33 33 33 33 34 34 35 34 34 34 35 35 35 35 34 34 34 34 33 34 34 34
29 29 29 29 29 29 30 30 30 30 30 30 30 30 31 31 31 31 31 30 31 31 32 32 33 34 34 35 35 34 35 35 36 36 36 35 35 35 35 35 34 34 34 34
28 28 28 28 29 30 30 30 31 31 30 30 30 30 31 31 31 32 32 31 31 32 32 32 33 34 35 36 35 36 36 36 36 36 36 36 35 35 35 35 35 35 35 34
28 28 28 28 28 29 29 30 30 30 30 30 30 31 31 31 32 32 32 32 32 32 33 33 34 35 35 36 36 36 36 35 35 36 36 36 35 35 35 35 36 36 36 36
27 27 28 28 28 28 28 29 29 30 30 30 30 31 31 32 32 32 32 33 33 33 33 33 34 35 35 35 35 36 36 35 35 36 36 35 35 35 35 36 36 36 36 36
28 28 29 29 29 29 28 29 29 29 29 29 30 31 32 32 32 33 33 33 33 33 33 33 34 34 34 34 34 34 35 35 35 35 35 35 35 36 36 36 36 36 36 36

GEFSNGP_500_meanwind_228.txt.gz
Wind_Speed
18 18 18 17 17 17 18 18 18 17 16 15 14 15 14 13 13 12 11 11 11 11 11 10 10 10 9 9 9 8 8 8 9 8 8 8 8 8 8 8 8 8 8 8
20 20 20 19 18 19 19 19 19 19 18 16 15 16 16 15 14 14 13 13 13 13 12 12 12 11 11 11 10 9 9 9 9 9 9 9 9 9 9 9 9 9 9 8
22 22 22 22 20 20 20 20 20 20 19 19 17 16 16 17 16 16 15 15 14 14 14 13 13 13 13 12 11 11 11 10 10 10 11 11 11 10 10 10 10 9 9 9
24 24 25 21 20 21 21 21 21 21 21 20 19 18 18 18 18 18 18 17 16 16 15 15 15 14 14 14 13 13 12 12 12 12 12 12 11 12 11 11 11 10 10 10
25 26 26 23 22 22 22 22 22 22 22 21 20 20 19 19 19 19 19 18 18 17 16 16 15 15 15 14 14 14 13 13 13 12 13 13 13 13 13 13 13 13 13 13
26 26 26 23 22 22 23 22 21 22 22 22 22 21 20 20 20 20 20 20 19 18 18 17 17 16 15 15 15 15 15 14 14 13 14 14 13 14 14 14 14 14 14 14
27 27 25 23 22 23 23 22 22 22 23 23 23 22 21 21 21 21 21 21 21 20 19 19 18 18 17 17 17 17 16 16 16 15 15 16 15 15 15 15 15 15 15 16
28 28 25 23 23 23 23 23 23 24 24 24 23 23 22 22 22 22 23 23 22 22 21 20 20 20 19 19 19 19 19 18 18 17 17 17 17 17 16 16 16 16 17 17
29 28 26 25 25 25 24 24 24 25 25 25 24 24 24 24 24 24 24 24 24 23 23 22 22 22 21 21 20 20 20 20 20 19 19 19 18 19 19 19 18 19 19 19
30 29 28 27 27 27 26 26 25 26 26 25 25 26 25 25 26 25 25 25 25 25 24 23 22 22 23 22 22 22 22 21 21 21 20 20 20 20 20 21 21 20 20 20
30 30 30 30 29 29 29 28 28 27 27 27 27 27 26 26 26 26 26 26 26 27 26 25 24 24 24 24 24 24 24 23 23 22 22 22 22 22 22 22 23 23 23 23
30 30 31 31 30 29 29 29 29 29 29 28 28 27 26 26 27 27 27 27 28 28 27 27 27 26 25 25 25 25 25 25 24 24 24 24 24 24 23 23 24 24 24 24
30 30 30 30 30 29 29 29 29 30 30 30 28 28 28 28 28 28 28 28 29 29 29 29 28 27 26 25 25 26 26 26 26 26 26 26 25 25 25 25 25 25 26 26
32 32 32 32 31 30 30 30 30 30 30 30 29 29 30 29 29 29 29 29 30 30 29 29 28 27 27 27 27 27 28 28 28 28 28 27 26 27 27 27 27 27 27 28
32 32 32 32 33 32 32 31 31 31 31 30 30 30 30 30 30 29 29 30 30 30 30 30 29 29 29 29 29 29 29 29 29 30 29 28 28 28 28 28 29 29 29 30
31 32 32 31 31 31 31 31 31 30 31 31 31 31 31 30 30 30 30 30 30 30 30 31 31 30 30 30 30 30 30 30 30 30 29 29 29 29 30 30 30 31 31 31
30 31 31 31 31 31 30 30 30 30 31 31 31 31 31 31 30 30 30 31 31 31 31 31 31 31 31 31 31 31 31 30 31 31 31 31 31 31 31 31 31 31 31 31
28 28 29 29 29 29 29 29 29 29 30 30 30 31 31 31 31 31 31 31 31 31 31 32 32 32 32 31 31 31 31 31 31 31 32 33 32 33 33 33 32 32 32 33
25 26 27 27 28 29 29 29 29 29 30 30 30 31 31 32 32 32 32 32 32 32 32 33 33 33 33 32 32 32 32 32 32 32 32 33 34 34 34 34 34 34 34 34
24 25 26 26 27 27 27 28 29 29 30 30 30 30 31 31 32 32 32 32 32 33 33 34 34 33 33 33 33 33 33 34 33 33 33 33 34 34 34 34 34 34 35 35
24 25 26 26 27 27 27 27 28 28 29 29 29 30 30 30 31 32 32 33 33 33 34 34 34 34 34 34 34 35 35 35 34 34 34 34 34 35 35 35 36 36 35 35
25 25 26 26 26 26 27 27 27 27 28 28 29 29 30 30 31 32 32 33 33 33 34 35 35 35 35 35 35 35 35 35 35 35 35 35 35 36 36 37 37 37 36 36
25 25 25 25 25 26 26 26 26 27 28 28 28 30 30 30 30 31 31 31 32 33 33 34 34 35 36 36 36 36 36 35 35 36 36 36 36 36 37 37 37 37 37 37
25 24 24 25 24 25 26 26 27 28 28 29 29 29 30 30 30 30 31 32 32 32 33 34 35 35 35 35 36 37 36 36 36 36 36 36 36 36 36 36 37 38 38 37
25 24 24 25 25 25 26 27 28 28 28 28 29 29 29 29 30 30 30 31 31 31 32 33 34 35 36 36 37 37 37 36 36 36 36 37 37 37 37 37 38 38 38 38
26 26 26 26 27 27 28 28 27 27 27 27 28 28 29 29 30 30 30 30 30 30 31 32 33 34 35 36 37 37 36 35 36 36 36 37 38 38 38 38 37 37 38 38
26 26 27 26 27 27 28 28 28 28 27 27 27 28 29 30 30 30 30 30 30 30 30 31 32 33 34 34 35 35 36 37 37 37 36 37 38 39 39 38 38 38 38 38